Kleine Brogel, Belgium

1:53 PM CEST on April 19, 2018 (GMT +0200)
Kleine-Brogel Air Base

Weather History for EBBL - January, 2018

Change the Weather History Date:

Friday, January 12, 2018

  Actual Average Record
Temperature  
Mean Temperature 40 °F -  
Max Temperature 42 °F 41 °F 53 °F (2007)
Min Temperature 39 °F 33 °F 17 °F (2003)
Degree Days  
Heating Degree Days 24    
Moisture  
Dew Point 41 °F    
Average Humidity 97    
Maximum Humidity 100    
Minimum Humidity 93    
Precipitation  
Precipitation 0.00 in - - ()
Sea Level Pressure  
Sea Level Pressure 30.30 in    
Wind  
Wind Speed 2 mph ()    
Max Wind Speed 5 mph    
Max Gust Speed -    
Visibility 1.3 miles    
Events      
Averages and records for this station are not official NWS values.
T = Trace of Precipitation, MM = Missing Value Source: Averaged Metar Reports

Daily Weather History Graph

Daily Weather History Graph

Search for Another Location

Airport or City:

Trip Planner

Search our weather history database for the weather conditions in past years. The results will help you decide how hot, cold, wet, or windy it might be!

Date:

Astronomy

Jan. 12, 2018 Rise Set
Actual Time 8:37 AM CET 4:55 PM CET
Civil Twilight 7:59 AM CET 5:33 PM CET
Nautical Twilight 7:17 AM CET 6:15 PM CET
Astronomical Twilight 6:37 AM CET 6:55 PM CET
Moon 4:17 AM CET (1/12) 1:54 PM CET (1/12)
Length of Visible Light 9h 34m
Length of Day
8h 17m
Waning Crescent, 18% of the Moon is Illuminated
Jan 12
Waning Crescent
Jan 17
New
Jan 24
First Quarter
Jan 31
Full
Feb 7
Last Quarter

Hourly Weather History & Observations

Time (CET) Temp. Windchill Dew Point Humidity Pressure Visibility Wind Dir Wind Speed Gust Speed Precip Events Conditions
12:00 AM 42 °F - 42 °F 100% 30.24 in 1 mi NNE 4.5 mph - -   Mist
12:06 AM 42.8 °F 40.1 °F 42.8 °F 100% 30.21 in 0.9 mi NNE 4.6 mph - N/A   Overcast
12:25 AM 42.8 °F - 42.8 °F 100% 30.24 in 1.1 mi Variable 2.3 mph - N/A   Overcast
12:55 AM 42.8 °F - 42.8 °F 100% 30.24 in 1.2 mi Variable 1.2 mph - N/A   Mostly Cloudy
1:00 AM 42 °F - 42 °F 99% 30.25 in 1 mi 2.2 mph - -   Mist
1:25 AM 42.8 °F - 41.0 °F 93% 30.24 in 1.6 mi Variable 2.3 mph - N/A   Overcast
1:55 AM 42.8 °F - 41.0 °F 93% 30.24 in 1.5 mi Variable 2.3 mph - N/A   Overcast
2:00 AM 42 °F - 42 °F 98% 30.26 in 1 mi 2.2 mph - -   Mist
2:25 AM 41.0 °F - 41.0 °F 100% 30.24 in 1.4 mi Variable 2.3 mph - N/A   Overcast
2:55 AM 41.0 °F - 41.0 °F 100% 30.24 in 1.3 mi Variable 2.3 mph - N/A   Overcast
3:00 AM 42 °F - 41 °F 96% 30.27 in 1 mi 2.2 mph - -   Mist
3:25 AM 41.0 °F 39.0 °F 41.0 °F 100% 30.27 in 1.3 mi NW 3.5 mph - N/A   Overcast
3:55 AM 41.0 °F 39.0 °F 41.0 °F 100% 30.27 in 1.2 mi North 3.5 mph - N/A   Overcast
4:00 AM 41 °F - 41 °F 98% 30.28 in 1 mi 2.2 mph - -   Mist
4:25 AM 41.0 °F - 41.0 °F 100% 30.27 in 1.0 mi Variable 2.3 mph - N/A   Overcast
4:55 AM 41.0 °F - 41.0 °F 100% 30.27 in 1.3 mi Variable 1.2 mph - N/A   Overcast
5:00 AM 41 °F - 41 °F 99% 30.28 in 1 mi 2.2 mph - -   Mist
5:25 AM 41.0 °F - 41.0 °F 100% 30.27 in 1.9 mi Variable 2.3 mph - N/A   Overcast
5:53 AM 41.0 °F - 41.0 °F 100% 30.27 in 1.9 mi Variable 1.2 mph - N/A   Overcast
5:55 AM 41.0 °F - 41.0 °F 100% 30.27 in 1.9 mi Variable 1.2 mph - N/A   Overcast
6:00 AM 41 °F - 41 °F 99% 30.29 in 2 mi 2.2 mph - -   Mist
6:25 AM 41.0 °F - 41.0 °F 100% 30.27 in 1.9 mi Variable 1.2 mph - N/A   Overcast
6:55 AM 41.0 °F - 41.0 °F 100% 30.27 in 1.9 mi Variable 1.2 mph - N/A   Mostly Cloudy
7:00 AM 41 °F - 40 °F 95% 30.29 in 2 mi 2.2 mph - -   Mist
7:25 AM 41.0 °F - 41.0 °F 100% 30.27 in 1.6 mi Variable 1.2 mph - N/A   Mostly Cloudy
7:55 AM 41.0 °F - 41.0 °F 100% 30.30 in 1.6 mi Variable 1.2 mph - N/A   Mostly Cloudy
8:00 AM 40 °F - 40 °F 100% 30.31 in 2 mi 2.2 mph - -   Mist
8:25 AM 41.0 °F - 41.0 °F 100% 30.30 in 0.9 mi Variable 2.3 mph - N/A   Mostly Cloudy
8:55 AM 41.0 °F - 41.0 °F 100% 30.30 in 0.9 mi Variable 1.2 mph - N/A   Overcast
9:00 AM 41 °F - 41 °F 98% 30.31 in 1 mi 2.2 mph - -   Mist
9:25 AM 41.0 °F - 41.0 °F 100% 30.30 in 0.9 mi Variable 1.2 mph - N/A   Overcast
9:55 AM 41.0 °F - 41.0 °F 100% 30.30 in 0.9 mi Variable 1.2 mph - N/A   Overcast
10:00 AM 41 °F - 41 °F 98% 30.33 in 1 mi 2.2 mph - -   Mist
10:24 AM 41.0 °F - 41.0 °F 100% 30.33 in 1.2 mi Variable 1.2 mph - N/A   Overcast
10:25 AM 41.0 °F - 41.0 °F 100% 30.33 in 1.2 mi Variable 1.2 mph - N/A   Overcast
10:55 AM 41.0 °F - 41.0 °F 100% 30.33 in 1.2 mi Variable 2.3 mph - N/A   Overcast
11:00 AM 41 °F - 40 °F 97% 30.34 in 1 mi 2.2 mph - -   Mist
11:25 AM 41.0 °F 39.0 °F 41.0 °F 100% 30.33 in 1.2 mi NNW 3.5 mph - N/A   Overcast
11:52 AM 42.8 °F - 41.0 °F 93% 30.33 in 1.2 mi Variable 1.2 mph - N/A   Overcast
11:55 AM 42.8 °F - 41.0 °F 93% 30.33 in 1.2 mi Variable 1.2 mph - N/A   Overcast
12:00 PM 42 °F - 41 °F 94% 30.34 in 1 mi 2.2 mph - -   Mist
12:25 PM 42.8 °F - 41.0 °F 93% 30.30 in 1.2 mi Variable 1.2 mph - N/A   Overcast
12:55 PM 42.8 °F - 41.0 °F 93% 30.30 in 1.2 mi Variable 1.2 mph - N/A   Overcast
1:00 PM 42 °F - 41 °F 95% 30.33 in 1 mi 2.2 mph - -   Mist
1:25 PM 42.8 °F - 41.0 °F 93% 30.30 in 1.2 mi Variable 1.2 mph - N/A   Overcast
1:55 PM 42.8 °F - 41.0 °F 93% 30.30 in 1.2 mi Variable 2.3 mph - N/A   Overcast
2:00 PM 42 °F - 41 °F 96% 30.32 in 1 mi 2.2 mph - -   Mist
2:55 PM 42.8 °F - 41.0 °F 93% 30.30 in 1.6 mi Variable 1.2 mph - N/A   Overcast
3:00 PM 42 °F - 41 °F 94% 30.32 in 2 mi 2.2 mph - -   Mist
3:25 PM 42.8 °F - 41.0 °F 93% 30.30 in 1.6 mi Variable 1.2 mph - N/A   Overcast
4:55 PM 42.8 °F - 41.0 °F 93% 30.30 in 1.7 mi Variable 1.2 mph - N/A   Overcast
5:00 PM 42 °F - 41 °F 94% 30.33 in 2 mi 2.2 mph - -   Mist
5:25 PM 42.8 °F - 41.0 °F 93% 30.30 in 1.6 mi Variable 1.2 mph - N/A   Overcast
5:55 PM 42.8 °F - 41.0 °F 93% 30.30 in 1.5 mi Variable 1.2 mph - N/A   Overcast
6:00 PM 42 °F - 41 °F 94% 30.33 in 1 mi 2.2 mph - -   Mist
6:25 PM 41.0 °F - 41.0 °F 100% 30.30 in 1.2 mi Variable 1.2 mph - N/A   Overcast
6:55 PM 41.0 °F - 41.0 °F 100% 30.30 in 1.1 mi Variable 2.3 mph - N/A   Overcast
7:00 PM 42 °F - 41 °F 94% 30.33 in 1 mi 2.2 mph - -   Mist
7:08 PM 41.0 °F 39.0 °F 41.0 °F 100% 30.30 in 0.9 mi ENE 3.5 mph - N/A   Overcast
7:21 PM 41.0 °F - 41.0 °F 100% 30.30 in 1.2 mi Variable 2.3 mph - N/A   Overcast
7:25 PM 41.0 °F - 41.0 °F 100% 30.30 in 1.2 mi Variable 2.3 mph - N/A   Overcast
7:55 PM 41.0 °F - 41.0 °F 100% 30.30 in 1.3 mi Variable 1.2 mph - N/A   Overcast
8:00 PM 42 °F - 41 °F 94% 30.34 in 1 mi 2.2 mph - -   Mist
8:25 PM 41.0 °F - 41.0 °F 100% 30.33 in 1.2 mi Variable 2.3 mph - N/A   Overcast
8:55 PM 41.0 °F 39.0 °F 41.0 °F 100% 30.33 in 1.1 mi ENE 3.5 mph - N/A   Overcast
9:00 PM 41 °F - 40 °F 96% 30.34 in 1 mi 2.2 mph - -   Mist
9:09 PM 41.0 °F - 41.0 °F 100% 30.33 in 0.9 mi Variable 2.3 mph - N/A   Overcast
9:25 PM 41.0 °F - 41.0 °F 100% 30.33 in 0.9 mi Variable 2.3 mph - N/A   Overcast
9:55 PM 41.0 °F - 39.2 °F 93% 30.33 in 1.0 mi Variable 1.2 mph - N/A   Overcast
10:00 PM 40 °F - 40 °F 100% 30.35 in 1 mi 2.2 mph - -   Mist
10:25 PM 41.0 °F - 39.2 °F 93% 30.33 in 1.3 mi Variable 2.3 mph - N/A   Overcast
10:55 PM 41.0 °F - 39.2 °F 93% 30.33 in 1.3 mi Variable 2.3 mph - N/A   Overcast
11:00 PM 40 °F - 40 °F 99% 30.34 in 1 mi 2.2 mph - -   Mist
11:23 PM 41.0 °F - 39.2 °F 93% 30.33 in 0.9 mi Variable 2.3 mph - N/A   Overcast
11:25 PM 39.2 °F 37.0 °F 39.2 °F 100% 30.33 in 0.9 mi East 3.5 mph - N/A   Overcast
11:55 PM 39.2 °F 37.0 °F 39.2 °F 100% 30.33 in 0.7 mi ESE 3.5 mph - N/A   Overcast